DELTA 1 DEB

Satellite information

Favourite Embed

Satellite Type and Status

DEBRISIN ORBIT

Key statistics

Satellite DELTA 1 DEB at a glance.

Uptime

18035

Days in orbit

Revolutions

≈ 11.7

Per day

Orbit

MEO

Medium Earth Orbit

Inclination

102.5

Latest

Satellite identification and parameters

Extended collection of information and parameters for DELTA 1 DEB.

Object identification

Identified? True

Debris? True

Object name: DELTA 1 DEB

International designator: 1976-077BK

Object number (NORAD): 10762

Object ID (CCSDS): 10762

Country: UNITED STATES OF AMERICA (US)

Current information (Y/N): Y

RCS size: MEDIUM

Orbital parameters

Period: 123.098 minutes

Inclination: 102.5256 deg

SMA: 8197.119 km

Apoapsis: 2436.664 km

Periapsis: 1201.305 km

RAAN: 76.8166 deg

Eccentricy: 0.07535323

Argument of periapsis: 247.1387 deg

Mean anomaly: 104.8398 deg

Mean motion: 11.69798028 rev/day

Mean motion (dot): 0.00002615 rev/day2

B* drag term: 0.022787029 1/REarth

Two-line elements (TLE)

Creation date: Dec. 14, 2025, 3:07 a.m.

Reference frame: TEME

Reference center: EARTH

Epoch: Dec. 13, 2025, 1 p.m. UTC

TLE line 0: 0 DELTA 1 DEB

TLE line 1: 1 10762U 76077BK 25347.54215280 .00002615 00000-0 22787-1 0 9992

TLE line 2: 2 10762 102.5256 76.8166 0753532 247.1387 104.8398 11.69798028573009

Live tracking on map

Real-time ground track for satellite DELTA 1 DEB.

In-orbit conjunctions

A list of the most updated potential collisions computed for object DELTA 1 DEB.

Target Orbit TCA Probability of collision Miss distance Type
SECOR 4 (EGRS 4) SSO 2024-12-19 10:00:23 0.0001821489 992.0 (m) PAYLOAD

Associated space launch

Meteorological satellite using radiometric imaging

DELTA 1 DEB was lifted into orbit during the mission ‘Delta 2310 | NOAA 5’, on board a Delta 2310 space rocket.

The launch took place on July 29, 1976, 5:07 p.m. from Space Launch Complex 2W.

For more information about the launch, click the button.

Launch to space Delta 2310 | NOAA 5
Delta 2310 | NOAA 5

Agency: N/A

Status: Launch Successful

Launch date: July 29, 1976, 5:07 p.m. UTC

Rocket: Delta 2310

Launch pad: Space Launch Complex 2W

Location: Vandenberg SFB, CA, USA

...

Latest news about this satellite

There are no fresh news available about this satellite. Check back as we update our databases every day.


Newsletter sign-up

Weekly statistics, charts and insights to help you stay on top of the space industry.